Location: Unspecified
(0.0000°N, 0.0000°E)
Time: 23:43:34
(UTC+00:00)

Courier 1B Rocket - Pass Details

Date: 18 December 2018
Orbit: 920 x 1202 km, 28.3° (Epoch: 18 January)

Event Time Altitude Azimuth Distance (km) Brightness Sun altitude
Rises 05:00:11 0° 253° (WSW) 3,586 - -12.9°
Exits shadow 05:02:45 - 259° (WSW) 2,685 6.8 -12.3°
Reaches altitude 10° 05:02:56 10° 259° (W) 2,621 6.8 -12.3°
Maximum altitude 05:08:51 44° 330° (NNW) 1,236 5.2 -10.9°
Drops below altitude 10° 05:14:47 10° 42° (NE) 2,615 7.5 -9.6°
Sets 05:17:32 0° 48° (NE) 3,578 8.3 -8.9°
